FW0663 Weather Reports


Display with metric or nautical units.
time (UTC)temp
F
wind
direction
speed
MPH
gust
MPH
rain 1hr
in
rain 24hr
in
rain mn
in
humidity
%
barometer
mb
20260906033004 60 10 1.0 5.0 0.00 0.00 0.00 57 1016.5
20260906031502 61 327 2.0 5.0 0.00 0.00 0.00 57 1016.6
20260906030004 62 323 0.0 2.0 0.00 0.00 0.00 51 1016.7
20260906024501 63 264 0.0 3.0 0.00 0.00 0.00 46 1016.7
20260906023003 63 9 0.0 4.0 0.00 0.00 0.00 44 1016.4
20260906021501 63 17 3.0 7.0 0.00 0.00 0.00 45 1016.3
20260906020100 64 103 0.0 4.0 0.00 0.00 0.00 45 1016.3
20260906014559 65 98 1.0 5.0 0.00 0.00 0.00 43 1016.4
20260906013059 66 101 1.0 5.0 0.00 0.00 0.00 43 1016.4
20260906011558 66 34 0.0 4.0 0.00 0.00 0.00 41 1016.5
20260906010137 66 331 1.0 5.0 0.00 0.06 0.00 40 1016.5
20260906004615 66 343 3.0 6.0 0.00 0.06 0.00 41 1016.6
20260906003056 66 327 3.0 6.0 0.00 0.06 0.00 39 1016.5
20260906001603 67 333 1.0 3.0 0.00 0.06 0.00 39 1016.6
20260906000054 67 330 1.0 6.0 0.00 0.07 0.00 41 1016.6
20260905234553 67 313 2.0 5.0 0.00 0.07 0.00 40 1016.7
20260905233052 67 279 2.0 6.0 0.00 0.07 0.00 40 1016.7
20260905231550 68 329 2.0 7.0 0.00 0.07 0.00 39 1016.9
20260905230050 67 324 3.0 6.0 0.00 0.07 0.00 39 1017.0
20260905224549 68 171 0.0 7.0 0.00 0.07 0.00 40 1016.9
20260905223052 68 331 3.0 8.0 0.00 0.07 0.00 41 1017.2
20260905221543 67 261 2.0 6.0 0.00 0.07 0.00 43 1017.3
20260905220041 67 13 5.0 9.0 0.00 0.07 0.00 43 1017.4
20260905214544 67 265 4.0 8.0 0.00 0.07 0.00 43 1017.6
20260905213037 67 165 2.0 4.0 0.00 0.07 0.00 45 1017.9
20260905211533 66 329 3.0 8.0 0.00 0.07 0.00 46 1018.0
20260905210044 65 296 1.0 6.0 0.00 0.08 0.00 48 1018.2
20260905204533 65 287 5.0 15.0 0.00 0.08 0.00 46 1018.3
20260905203028 64 355 2.0 10.0 0.00 0.08 0.00 48 1018.4
20260905201530 64 333 1.0 4.0 0.00 0.08 0.00 50 1018.6
20260905200032 64 350 0.0 5.0 0.00 0.09 0.00 50 1018.8
20260905194520 63 327 1.0 5.0 0.00 0.09 0.00 50 1018.9
20260905193020 62 93 3.0 5.0 0.00 0.09 0.00 53 1019.0
20260905191514 61 60 1.0 4.0 0.00 0.09 0.00 56 1019.1
20260905190012 60 347 1.0 5.0 0.00 0.09 0.00 62 1019.5
20260905184508 59 42 1.0 4.0 0.00 0.09 0.00 64 1019.8
20260905183005 58 317 2.0 4.0 0.00 0.09 0.00 64 1019.9
20260905181502 57 88 1.0 4.0 0.00 0.09 0.00 67 1020.2
20260905180059 55 110 0.0 3.0 0.00 0.09 0.00 71 1020.3
20260905174558 54 311 0.0 2.0 0.00 0.09 0.00 76 1020.5
20260905173054 52 30 0.0 3.0 0.00 0.09 0.00 76 1020.6
20260905171549 50 98 0.0 2.0 0.00 0.09 0.00 83 1020.8
20260905170044 48 109 0.0 3.0 0.00 0.09 0.00 83 1020.8
20260905164544 47 96 0.0 4.0 0.00 0.09 0.00 84 1020.9
20260905163038 46 91 1.0 8.0 0.00 0.09 0.00 86 1021.0
20260905161536 45 81 2.0 5.0 0.00 0.09 0.00 88 1021.0
20260905160034 44 79 1.0 3.0 0.00 0.09 0.00 88 1021.1
20260905154531 44 75 2.0 6.0 0.00 0.09 0.00 89 1021.3
20260905153034 43 21 2.0 5.0 0.00 0.09 0.00 89 1021.0
20260905151526 42 93 2.0 8.0 0.00 0.09 0.00 90 1021.0
20260905150024 40 76 0.0 2.0 0.00 0.09 0.00 94 1021.1
20260905144521 39 257 0.0 2.0 0.00 0.09 0.00 93 1021.1
20260905143027 39 219 0.0 1.0 0.00 0.09 0.00 92 1020.8
20260905141518 39 299 0.0 3.0 0.00 0.09 0.00 93 1020.8
20260905140016 39 118 0.0 4.0 0.00 0.09 0.00 93 1020.5
20260905134525 38 47 0.0 3.0 0.00 0.09 0.00 94 1020.4
20260905133015 38 118 0.0 3.0 0.00 0.09 0.00 94 1020.4
20260905131514 38 97 0.0 2.0 0.00 0.09 0.00 94 1020.2
20260905130013 37 246 0.0 0.0 0.00 0.09 0.00 94 1020.4
20260905124518 37 107 0.0 0.0 0.00 0.09 0.00 94 1020.3
20260905123040 37 234 0.0 0.0 0.00 0.09 0.00 93 1020.4
20260905121515 37 232 0.0 0.0 0.00 0.09 0.00 94 1020.3
20260905120009 37 103 0.0 0.0 0.00 0.09 0.00 93 1020.4
20260905114513 38 117 0.0 1.0 0.00 0.09 0.00 94 1020.5
20260905113008 37 121 0.0 0.0 0.00 0.09 0.00 93 1020.5
20260905111508 37 139 0.0 0.0 0.00 0.09 0.00 93 1020.5
20260905110006 37 161 0.0 0.0 0.00 0.09 0.00 92 1020.5
20260905104503 38 129 0.0 0.0 0.00 0.09 0.00 92 1020.4
20260905103105 39 86 0.0 0.0 0.00 0.09 0.00 93 1020.2
20260905101600 39 153 0.0 0.0 0.00 0.09 0.00 93 1020.2
20260905100107 39 219 0.0 0.0 0.00 0.09 0.00 94 1020.2
20260905094557 40 155 0.0 2.0 0.00 0.09 0.00 93 1020.0
20260905093058 40 140 0.0 2.0 0.00 0.09 0.00 93 1020.1
20260905091557 40 92 1.0 3.0 0.00 0.09 0.00 94 1020.0
20260905090054 40 144 0.0 2.0 0.00 0.09 0.00 94 1020.1
20260905084605 39 128 0.0 2.0 0.00 0.09 0.00 93 1020.0
20260905083052 39 107 0.0 0.0 0.00 0.09 0.00 93 1019.9
20260905081550 39 113 0.0 0.0 0.00 0.09 0.00 93 1019.8
20260905080118 40 105 0.0 0.0 0.00 0.09 0.00 93 1019.8
20260905074549 40 218 0.0 0.0 0.00 0.09 0.00 92 1019.8
20260905073044 40 98 0.0 0.0 0.00 0.09 0.00 93 1019.5
20260905071542 40 105 0.0 0.0 0.00 0.09 0.00 92 1019.3
20260905070049 41 105 0.0 0.0 0.00 0.09 0.09 92 1019.2
20260905064546 41 86 0.0 0.0 0.00 0.09 0.09 92 1019.0
20260905063041 42 250 0.0 0.0 0.00 0.09 0.09 92 1018.9
20260905061539 42 126 0.0 0.0 0.00 0.09 0.09 92 1018.7
20260905060047 43 126 0.0 0.0 0.00 0.09 0.09 93 1018.5
20260905054538 42 98 0.0 0.0 0.00 0.09 0.09 91 1018.6
20260905053035 43 104 0.0 0.0 0.00 0.09 0.09 92 1018.4
20260905051549 43 110 0.0 0.0 0.00 0.09 0.09 90 1018.5
20260905050037 44 94 0.0 2.0 0.00 0.09 0.09 91 1018.5
20260905044541 45 80 0.0 2.0 0.00 0.09 0.09 90 1018.6
20260905043037 45 95 0.0 0.0 0.00 0.09 0.09 89 1018.7
20260905041534 46 344 0.0 0.0 0.00 0.09 0.09 87 1018.7
20260905040038 47 344 0.0 2.0 0.00 0.09 0.09 88 1018.4
20260905034528 47 223 0.0 2.0 0.00 0.09 0.09 88 1018.1
20260905033026 48 238 0.0 1.0 0.00 0.09 0.09 86 1017.8